IRIDIUM 33 DEB, 46972

Orbit data source: Space-Track

IRIDIUM 33 DEB, 46972 is space debris in LEO originally from a launch on Sun, 14 Sep 1997 UTC launched from the Tyuratam Missile And Space Complex (TTMTR). The debris from Iridium 33, an American commercial communications satellite, has been tracked extensively since its accidental collision with the defunct Russian satellite Cosmos 2251 in 2009. This event, occurring at high speed in low Earth orbit (LEO), generated thousands of pieces of space debris, significantly increasing the risk of further collisions. The Iridium 33 debris cloud has impacted space traffic management and orbital debris mitigation strategies, making it a subject of ongoing study in space situational awareness.

Loading next visibility...
IRIDIUM 33 DEB details
Identifier
46972, 1997-051ACE
Orbit
LEO
Last TLE update2 months ago
Origin
Flag of USIridium (US)
ManufacturerUnknown
MissionSpacecraft
Bus & MotorUnknown
MassUnknown
Launch date (UTC)
1997-09-14 (27 years ago)
Launch vehicleUnknown
Launch site
Tyuratam Missile And Space Complex (TTMTR)
Object type
Payload
Rocket body
Debris
Shape & HBRUnknown
Radar Cross SectionSmall (<0.1 m²)

Expand to show TLE details & history

TLE from 2 months ago
0 IRIDIUM 33 DEB
1 46972U 97051ACE 24281.61331312  .00012723  00000-0  34643-2 0  9994
2 46972  86.3918 224.4394 0012545  99.3719  24.3382 14.47316702714142
Epoch: 2024-10-07T14:43Z
Definitive object data (Epoch: 2024-10-07T14:43:10.253Z)
Latitude56.15983°
Longitude161.54045°
Altitude735.757 km
Speed7.497 km/s
True Right ascension02h 36m 17s
True Declination56° 00' 00"
Sunlit
Object was in full shadow at TLE epoch
Visualization TLE readout
Latitude84.11269°
Longitude-0.79425°
Altitude752.117 km
Speed7.481 km/s
Apparent Right ascension19h 22m 54s
Apparent Declination29° 32' 32"
Sunlit
Object is in daylight
Visualization observer readout
Local Sidereal Time07:50:43
Azimuth6.449° NNE
Elevation-20.241°
Doppler factor1
Orbital elements
Apogee altitude740.291 km
Perigee altitude722.453 km
Semi-major axis7,109.509 km
Eccentricity0.0012545
Inclination86.3918°
RAAN224.4394°
Arg. of periapsis99.3719°
True anomaly24.39753°
Mean anomaly24.3382°
Eccentric anomaly24.36786°
Mean motion3.62063 °/min
BSTAR0.0034643
Orbital period99.43 mins
Loading maneuver chart data...

IRIDIUM 33 DEB Visibility forecast

Observer location: undefined°, undefined

Span
Click to sort rows by Start time (UTC) header in descending order
Start Az.
Max El. time (UTC)
Max El. Az.
Max El.
End time (UTC)
End Az.
8 mins2024-12-05 14:34:25.890Z138.896° SSE2024-12-05 14:38:25.890Z82.051° E24.726°2024-12-05 14:42:25.890Z27.124° NE
6 mins2024-12-05 16:15:25.890Z234.382° WSW2024-12-05 16:18:25.890Z290.108° WNW25.861°2024-12-05 16:21:25.890Z334.14° NNW
8 mins2024-12-06 02:38:25.890Z11.054° NNE2024-12-06 02:42:25.890Z104.732° ESE38.96°2024-12-06 02:46:25.890Z161.944° S
|